| time (UTC) | temp F | wind direction | speed MPH | gust MPH | rain 1hr in | rain 24hr in | rain mn in | humidity % | barometer mb |
| 20260905073504 | 88 | 125 | 1.0 | 4.0 | 0.00 | 0.00 | 0.00 | 50 | 1019.5 |
| 20260905073218 | 88 | 129 | 1.0 | 4.0 | 0.00 | 0.00 | 0.00 | 50 | 1019.7 |
| 20260905072504 | 87 | 138 | 1.0 | 3.0 | 0.00 | 0.00 | 0.00 | 51 | 1019.5 |
| 20260905072003 | 87 | 133 | 1.0 | 4.0 | 0.00 | 0.00 | 0.00 | 55 | 1019.5 |
| 20260905071503 | 87 | 138 | 1.0 | 4.0 | 0.00 | 0.00 | 0.00 | 53 | 1019.7 |
| 20260905071214 | 87 | 137 | 1.0 | 4.0 | 0.00 | 0.00 | 0.00 | 54 | 1019.7 |
| 20260905070503 | 87 | 173 | 1.0 | 2.0 | 0.00 | 0.00 | 0.00 | 51 | 1019.5 |
| 20260905070003 | 87 | 174 | 1.0 | 3.0 | 0.00 | 0.00 | 0.00 | 49 | 1019.6 |
| 20260905065503 | 88 | 164 | 1.0 | 3.0 | 0.00 | 0.00 | 0.00 | 49 | 1019.6 |
| 20260905065004 | 87 | 138 | 1.0 | 3.0 | 0.00 | 0.00 | 0.00 | 49 | 1019.7 |
| 20260905064504 | 86 | 129 | 1.0 | 3.0 | 0.00 | 0.00 | 0.00 | 51 | 1019.6 |
| 20260905064004 | 86 | 111 | 1.0 | 2.0 | 0.00 | 0.00 | 0.00 | 52 | 1019.4 |
| 20260905063504 | 85 | 123 | 0.0 | 1.0 | 0.00 | 0.00 | 0.00 | 53 | 1019.5 |
| 20260905063213 | 85 | 130 | 0.0 | 2.0 | 0.00 | 0.00 | 0.00 | 52 | 1019.6 |
| 20260905062504 | 87 | 129 | 0.0 | 2.0 | 0.00 | 0.00 | 0.00 | 51 | 1019.5 |
| 20260905062003 | 87 | 139 | 0.0 | 2.0 | 0.00 | 0.00 | 0.00 | 51 | 1019.3 |
| 20260905061504 | 87 | 156 | 0.0 | 2.0 | 0.00 | 0.00 | 0.00 | 51 | 1019.4 |
| 20260905061215 | 86 | 158 | 0.0 | 1.0 | 0.00 | 0.00 | 0.00 | 51 | 1019.3 |
| 20260905060504 | 87 | 152 | 0.0 | 1.0 | 0.00 | 0.00 | 0.00 | 49 | 1019.2 |
| 20260905060004 | 86 | 164 | 0.0 | 1.0 | 0.00 | 0.00 | 0.00 | 49 | 1019.4 |
| 20260905055503 | 86 | 191 | 0.0 | 1.0 | 0.00 | 0.00 | 0.00 | 49 | 1019.2 |
| 20260905055003 | 86 | 0 | 0.0 | 0.0 | 0.00 | 0.00 | 0.00 | 48 | 1019.3 |
| 20260905054503 | 85 | 186 | 0.0 | 1.0 | 0.00 | 0.00 | 0.00 | 48 | 1019.2 |
| 20260905054003 | 84 | 185 | 0.0 | 1.0 | 0.00 | 0.00 | 0.00 | 49 | 1019.4 |
| 20260905053505 | 84 | 184 | 0.0 | 1.0 | 0.00 | 0.00 | 0.00 | 49 | 1019.2 |
| 20260905053003 | 83 | 0 | 0.0 | 0.0 | 0.00 | 0.00 | 0.00 | 49 | 1019.1 |
| 20260905052717 | 83 | 0 | 0.0 | 0.0 | 0.00 | 0.00 | 0.00 | 49 | 1019.2 |
| 20260905052004 | 82 | 0 | 0.0 | 0.0 | 0.00 | 0.00 | 0.00 | 51 | 1019.0 |
| 20260905051504 | 81 | 0 | 0.0 | 0.0 | 0.00 | 0.00 | 0.00 | 52 | 1019.0 |
| 20260905051003 | 80 | 204 | 0.0 | 1.0 | 0.00 | 0.00 | 0.00 | 53 | 1019.1 |
| 20260905050503 | 79 | 203 | 0.0 | 1.0 | 0.00 | 0.00 | 0.00 | 53 | 1018.9 |
| 20260905050004 | 79 | 193 | 0.0 | 1.0 | 0.00 | 0.00 | 0.00 | 53 | 1019.1 |
| 20260905045504 | 78 | 198 | 0.0 | 1.0 | 0.00 | 0.00 | 0.00 | 54 | 1018.9 |
| 20260905045003 | 78 | 209 | 0.0 | 1.0 | 0.00 | 0.00 | 0.00 | 54 | 1018.9 |
| 20260905044504 | 78 | 198 | 0.0 | 1.0 | 0.00 | 0.00 | 0.00 | 54 | 1018.8 |
| 20260905044214 | 78 | 194 | 0.0 | 1.0 | 0.00 | 0.00 | 0.00 | 54 | 1018.8 |
| 20260905043717 | 78 | 184 | 0.0 | 1.0 | 0.00 | 0.00 | 0.00 | 54 | 1018.8 |
| 20260905043004 | 77 | 0 | 0.0 | 0.0 | 0.00 | 0.00 | 0.00 | 56 | 1018.9 |
| 20260905042504 | 77 | 0 | 0.0 | 0.0 | 0.00 | 0.00 | 0.00 | 57 | 1018.8 |
| 20260905042003 | 77 | 0 | 0.0 | 0.0 | 0.00 | 0.00 | 0.00 | 58 | 1018.8 |
| 20260905041504 | 77 | 192 | 0.0 | 1.0 | 0.00 | 0.00 | 0.00 | 58 | 1018.8 |
| 20260905041216 | 77 | 192 | 0.0 | 1.0 | 0.00 | 0.00 | 0.00 | 58 | 1018.8 |
| 20260905040504 | 78 | 0 | 0.0 | 0.0 | 0.00 | 0.00 | 0.00 | 58 | 1018.9 |
| 20260905040217 | 78 | 198 | 0.0 | 1.0 | 0.00 | 0.00 | 0.00 | 58 | 1018.8 |
| 20260905035715 | 78 | 199 | 0.0 | 1.0 | 0.00 | 0.00 | 0.00 | 58 | 1018.8 |
| 20260905035003 | 78 | 190 | 0.0 | 1.0 | 0.00 | 0.00 | 0.00 | 58 | 1018.8 |
| 20260905034503 | 78 | 0 | 0.0 | 0.0 | 0.00 | 0.00 | 0.00 | 59 | 1018.7 |
| 20260905034004 | 78 | 228 | 0.0 | 0.0 | 0.00 | 0.00 | 0.00 | 59 | 1018.6 |
| 20260905033503 | 78 | 233 | 0.0 | 1.0 | 0.00 | 0.00 | 0.00 | 58 | 1018.7 |
| 20260905033004 | 79 | 235 | 0.0 | 1.0 | 0.00 | 0.00 | 0.00 | 58 | 1018.5 |
| 20260905032504 | 79 | 229 | 0.0 | 0.0 | 0.00 | 0.00 | 0.00 | 58 | 1018.6 |
| 20260905032003 | 79 | 229 | 0.0 | 1.0 | 0.00 | 0.00 | 0.00 | 58 | 1018.3 |
| 20260905031504 | 79 | 229 | 0.0 | 1.0 | 0.00 | 0.00 | 0.00 | 57 | 1018.4 |
| 20260905031004 | 79 | 0 | 0.0 | 0.0 | 0.00 | 0.00 | 0.00 | 58 | 1018.5 |
| 20260905030503 | 79 | 0 | 0.0 | 0.0 | 0.00 | 0.00 | 0.00 | 58 | 1018.4 |
| 20260905030003 | 78 | 174 | 0.0 | 1.0 | 0.00 | 0.00 | 0.00 | 57 | 1018.6 |
| 20260905025503 | 78 | 172 | 0.0 | 1.0 | 0.00 | 0.00 | 0.00 | 57 | 1018.3 |
| 20260905025214 | 79 | 174 | 0.0 | 1.0 | 0.00 | 0.00 | 0.00 | 56 | 1018.3 |
| 20260905024503 | 79 | 187 | 0.0 | 1.0 | 0.00 | 0.00 | 0.00 | 56 | 1018.3 |
| 20260905024004 | 79 | 175 | 1.0 | 2.0 | 0.00 | 0.00 | 0.00 | 56 | 1018.1 |
| 20260905023504 | 79 | 171 | 1.0 | 2.0 | 0.00 | 0.00 | 0.00 | 57 | 1018.1 |
| 20260905023004 | 79 | 177 | 0.0 | 1.0 | 0.00 | 0.00 | 0.00 | 58 | 1018.1 |
| 20260905022504 | 79 | 176 | 1.0 | 2.0 | 0.00 | 0.00 | 0.00 | 58 | 1018.0 |
| 20260905022003 | 79 | 175 | 1.0 | 2.0 | 0.00 | 0.00 | 0.00 | 58 | 1018.2 |
| 20260905021503 | 79 | 172 | 1.0 | 2.0 | 0.00 | 0.00 | 0.00 | 58 | 1018.2 |
| 20260905021004 | 80 | 173 | 1.0 | 2.0 | 0.00 | 0.00 | 0.00 | 59 | 1018.2 |
| 20260905020503 | 80 | 175 | 1.0 | 2.0 | 0.00 | 0.00 | 0.00 | 58 | 1018.3 |
| 20260905020003 | 80 | 176 | 1.0 | 2.0 | 0.00 | 0.00 | 0.00 | 58 | 1018.2 |
| 20260905015504 | 80 | 177 | 1.0 | 2.0 | 0.00 | 0.00 | 0.00 | 58 | 1018.2 |
| 20260905015003 | 80 | 174 | 1.0 | 2.0 | 0.00 | 0.00 | 0.00 | 57 | 1018.2 |
| 20260905014503 | 80 | 179 | 0.0 | 1.0 | 0.00 | 0.00 | 0.00 | 57 | 1018.1 |
| 20260905014004 | 80 | 173 | 1.0 | 1.0 | 0.00 | 0.00 | 0.00 | 57 | 1018.2 |
| 20260905013503 | 80 | 169 | 1.0 | 2.0 | 0.00 | 0.00 | 0.00 | 57 | 1018.2 |
| 20260905013004 | 80 | 179 | 0.0 | 2.0 | 0.00 | 0.00 | 0.00 | 57 | 1018.3 |
| 20260905012503 | 80 | 188 | 0.0 | 1.0 | 0.00 | 0.00 | 0.00 | 57 | 1018.4 |
| 20260905012004 | 80 | 181 | 1.0 | 2.0 | 0.00 | 0.00 | 0.00 | 57 | 1018.4 |
| 20260905011503 | 80 | 179 | 1.0 | 2.0 | 0.00 | 0.00 | 0.00 | 57 | 1018.3 |
| 20260905011003 | 80 | 185 | 1.0 | 2.0 | 0.00 | 0.00 | 0.00 | 58 | 1018.4 |
| 20260905010504 | 80 | 182 | 1.0 | 2.0 | 0.00 | 0.00 | 0.00 | 58 | 1018.3 |
| 20260905010004 | 80 | 179 | 0.0 | 2.0 | 0.00 | 0.00 | 0.00 | 60 | 1018.3 |
| 20260905005503 | 80 | 184 | 0.0 | 1.0 | 0.00 | 0.00 | 0.00 | 60 | 1018.4 |
| 20260905005004 | 80 | 175 | 1.0 | 2.0 | 0.00 | 0.00 | 0.00 | 59 | 1018.3 |
| 20260905004503 | 80 | 171 | 1.0 | 2.0 | 0.00 | 0.00 | 0.00 | 60 | 1018.3 |
| 20260905004003 | 80 | 173 | 0.0 | 1.0 | 0.00 | 0.00 | 0.00 | 61 | 1018.4 |
| 20260905003504 | 80 | 177 | 0.0 | 1.0 | 0.00 | 0.00 | 0.00 | 63 | 1018.4 |
| 20260905003003 | 80 | 184 | 0.0 | 0.0 | 0.00 | 0.00 | 0.00 | 64 | 1018.3 |
| 20260905002504 | 80 | 185 | 0.0 | 1.0 | 0.00 | 0.00 | 0.00 | 64 | 1018.3 |
| 20260905002004 | 80 | 185 | 0.0 | 1.0 | 0.00 | 0.00 | 0.00 | 65 | 1018.5 |
| 20260905001503 | 80 | 166 | 0.0 | 1.0 | 0.00 | 0.00 | 0.00 | 65 | 1018.5 |
| 20260905001004 | 80 | 176 | 0.0 | 1.0 | 0.00 | 0.00 | 0.00 | 66 | 1018.4 |
| 20260905000504 | 80 | 190 | 0.0 | 1.0 | 0.00 | 0.00 | 0.00 | 65 | 1018.6 |
| 20260905000004 | 80 | 190 | 0.0 | 1.0 | 0.00 | 0.00 | 0.00 | 66 | 1018.7 |
| 20260904235503 | 80 | 181 | 0.0 | 2.0 | 0.00 | 0.00 | 0.00 | 66 | 1018.6 |
| 20260904235003 | 80 | 181 | 0.0 | 2.0 | 0.00 | 0.00 | 0.00 | 67 | 1018.7 |
| 20260904234504 | 80 | 178 | 0.0 | 1.0 | 0.00 | 0.00 | 0.00 | 68 | 1018.8 |
| 20260904234004 | 80 | 173 | 0.0 | 1.0 | 0.00 | 0.00 | 0.00 | 68 | 1018.5 |
| 20260904233503 | 80 | 187 | 0.0 | 1.0 | 0.00 | 0.00 | 0.00 | 68 | 1018.6 |
| 20260904233004 | 80 | 195 | 0.0 | 1.0 | 0.00 | 0.00 | 0.00 | 68 | 1018.7 |
| 20260904232503 | 80 | 184 | 0.0 | 1.0 | 0.00 | 0.00 | 0.00 | 69 | 1018.7 |
| 20260904232003 | 80 | 183 | 0.0 | 1.0 | 0.00 | 0.00 | 0.00 | 69 | 1018.9 |
| 20260904231504 | 80 | 188 | 0.0 | 1.0 | 0.00 | 0.00 | 0.00 | 69 | 1018.8 |
| 20260904230504 | 80 | 180 | 0.0 | 1.0 | 0.00 | 0.00 | 0.00 | 69 | 1019.0 |
| 20260904230003 | 80 | 180 | 0.0 | 1.0 | 0.00 | 0.00 | 0.00 | 69 | 1019.0 |
| 20260904225713 | 81 | 169 | 0.0 | 1.0 | 0.00 | 0.00 | 0.00 | 69 | 1019.0 |
| 20260904225003 | 81 | 176 | 0.0 | 1.0 | 0.00 | 0.00 | 0.00 | 69 | 1019.1 |
| 20260904224504 | 81 | 191 | 0.0 | 1.0 | 0.00 | 0.00 | 0.00 | 69 | 1019.1 |
| 20260904224003 | 80 | 191 | 0.0 | 1.0 | 0.00 | 0.00 | 0.00 | 69 | 1019.2 |
| 20260904223503 | 81 | 191 | 0.0 | 1.0 | 0.00 | 0.00 | 0.00 | 70 | 1019.0 |
| 20260904223003 | 81 | 0 | 0.0 | 0.0 | 0.00 | 0.00 | 0.00 | 71 | 1019.3 |
| 20260904222504 | 81 | 0 | 0.0 | 0.0 | 0.00 | 0.00 | 0.00 | 71 | 1019.4 |
| 20260904222004 | 81 | 195 | 0.0 | 1.0 | 0.00 | 0.00 | 0.00 | 70 | 1019.2 |
| 20260904221503 | 81 | 195 | 0.0 | 1.0 | 0.00 | 0.00 | 0.00 | 70 | 1019.3 |
| 20260904221004 | 81 | 0 | 0.0 | 0.0 | 0.00 | 0.00 | 0.00 | 70 | 1019.3 |
| 20260904220503 | 81 | 0 | 0.0 | 0.0 | 0.00 | 0.00 | 0.00 | 70 | 1019.3 |
| 20260904220216 | 81 | 0 | 0.0 | 0.0 | 0.00 | 0.00 | 0.00 | 70 | 1019.2 |
| 20260904215503 | 82 | 170 | 0.0 | 1.0 | 0.00 | 0.00 | 0.00 | 70 | 1019.5 |
| 20260904215003 | 82 | 197 | 0.0 | 2.0 | 0.00 | 0.00 | 0.00 | 70 | 1019.3 |
| 20260904214504 | 82 | 203 | 0.0 | 2.0 | 0.00 | 0.00 | 0.00 | 70 | 1019.3 |
| 20260904214004 | 82 | 188 | 0.0 | 1.0 | 0.00 | 0.00 | 0.00 | 70 | 1019.3 |
| 20260904213503 | 82 | 186 | 0.0 | 0.0 | 0.00 | 0.00 | 0.00 | 70 | 1019.4 |
| 20260904213004 | 82 | 202 | 0.0 | 2.0 | 0.00 | 0.00 | 0.00 | 71 | 1019.3 |
| 20260904212503 | 82 | 200 | 0.0 | 2.0 | 0.00 | 0.00 | 0.00 | 71 | 1019.2 |
| 20260904212004 | 82 | 196 | 0.0 | 1.0 | 0.00 | 0.00 | 0.00 | 72 | 1019.4 |
| 20260904211504 | 82 | 0 | 0.0 | 0.0 | 0.00 | 0.00 | 0.00 | 72 | 1019.5 |
| 20260904211004 | 82 | 205 | 0.0 | 1.0 | 0.00 | 0.00 | 0.00 | 72 | 1019.5 |
| 20260904210504 | 82 | 205 | 0.0 | 1.0 | 0.00 | 0.00 | 0.00 | 72 | 1019.4 |
| 20260904210003 | 82 | 0 | 0.0 | 0.0 | 0.00 | 0.00 | 0.00 | 72 | 1019.3 |
| 20260904205715 | 82 | 0 | 0.0 | 0.0 | 0.00 | 0.00 | 0.00 | 72 | 1019.7 |
| 20260904205003 | 82 | 0 | 0.0 | 0.0 | 0.00 | 0.00 | 0.00 | 72 | 1019.4 |
| 20260904204503 | 82 | 205 | 0.0 | 1.0 | 0.00 | 0.00 | 0.00 | 72 | 1019.2 |
| 20260904204003 | 82 | 195 | 0.0 | 1.0 | 0.00 | 0.00 | 0.00 | 72 | 1019.3 |
| 20260904203716 | 82 | 189 | 0.0 | 1.0 | 0.00 | 0.00 | 0.00 | 72 | 1019.5 |
| 20260904203214 | 82 | 308 | 0.0 | 2.0 | 0.00 | 0.00 | 0.00 | 71 | 1019.4 |
| 20260904202503 | 82 | 274 | 0.0 | 2.0 | 0.00 | 0.00 | 0.00 | 71 | 1019.4 |
| 20260904202003 | 82 | 6 | 1.0 | 3.0 | 0.00 | 0.00 | 0.00 | 71 | 1019.4 |
| 20260904201503 | 82 | 10 | 1.0 | 3.0 | 0.00 | 0.00 | 0.00 | 71 | 1019.3 |
| 20260904201216 | 82 | 14 | 1.0 | 6.0 | 0.00 | 0.00 | 0.00 | 71 | 1019.3 |
| 20260904200504 | 83 | 39 | 1.0 | 6.0 | 0.00 | 0.00 | 0.00 | 71 | 1019.4 |
| 20260904200004 | 83 | 48 | 0.0 | 3.0 | 0.00 | 0.00 | 0.00 | 71 | 1019.4 |
| 20260904195715 | 83 | 53 | 1.0 | 3.0 | 0.00 | 0.00 | 0.00 | 71 | 1019.4 |
| 20260904195003 | 83 | 57 | 0.0 | 2.0 | 0.00 | 0.00 | 0.00 | 71 | 1019.5 |
| 20260904194504 | 83 | 40 | 0.0 | 3.0 | 0.00 | 0.00 | 0.00 | 71 | 1019.3 |
| 20260904194004 | 83 | 14 | 1.0 | 3.0 | 0.00 | 0.00 | 0.00 | 71 | 1019.5 |
| 20260904193717 | 83 | 360 | 1.0 | 2.0 | 0.00 | 0.00 | 0.00 | 71 | 1019.3 |
| 20260904193004 | 83 | 322 | 1.0 | 3.0 | 0.00 | 0.00 | 0.00 | 71 | 1019.6 |
| 20260904192503 | 83 | 287 | 1.0 | 2.0 | 0.00 | 0.00 | 0.00 | 71 | 1019.7 |
| 20260904192003 | 83 | 256 | 0.0 | 2.0 | 0.00 | 0.00 | 0.00 | 71 | 1019.5 |
| 20260904191504 | 83 | 24 | 0.0 | 3.0 | 0.00 | 0.00 | 0.00 | 71 | 1019.5 |
| 20260904191003 | 83 | 14 | 1.0 | 6.0 | 0.00 | 0.00 | 0.00 | 70 | 1019.3 |
| 20260904190504 | 83 | 39 | 2.0 | 6.0 | 0.00 | 0.00 | 0.00 | 70 | 1019.2 |
| 20260904190003 | 83 | 87 | 1.0 | 3.0 | 0.00 | 0.00 | 0.00 | 70 | 1019.2 |
| 20260904185716 | 83 | 43 | 1.0 | 4.0 | 0.00 | 0.00 | 0.00 | 69 | 1019.0 |
| 20260904185003 | 83 | 78 | 1.0 | 4.0 | 0.00 | 0.00 | 0.00 | 68 | 1019.0 |
| 20260904184503 | 83 | 98 | 1.0 | 3.0 | 0.00 | 0.00 | 0.00 | 68 | 1019.0 |
| 20260904184004 | 84 | 75 | 1.0 | 4.0 | 0.00 | 0.00 | 0.00 | 67 | 1019.0 |
| 20260904183503 | 84 | 56 | 2.0 | 10.0 | 0.00 | 0.00 | 0.00 | 67 | 1018.8 |
| 20260904183215 | 84 | 45 | 2.0 | 10.0 | 0.00 | 0.00 | 0.00 | 67 | 1018.9 |
| 20260904182504 | 84 | 52 | 1.0 | 6.0 | 0.00 | 0.00 | 0.00 | 66 | 1018.7 |
| 20260904182004 | 84 | 43 | 1.0 | 6.0 | 0.00 | 0.00 | 0.00 | 65 | 1018.6 |
| 20260904181503 | 84 | 41 | 1.0 | 4.0 | 0.00 | 0.00 | 0.00 | 65 | 1018.5 |
| 20260904181003 | 84 | 50 | 1.0 | 7.0 | 0.00 | 0.00 | 0.00 | 65 | 1018.4 |
| 20260904180503 | 84 | 82 | 1.0 | 7.0 | 0.00 | 0.00 | 0.00 | 66 | 1018.3 |
| 20260904180004 | 84 | 128 | 1.0 | 3.0 | 0.00 | 0.00 | 0.00 | 68 | 1018.1 |
| 20260904175504 | 84 | 114 | 0.0 | 2.0 | 0.00 | 0.00 | 0.00 | 69 | 1018.3 |
| 20260904175214 | 84 | 119 | 0.0 | 2.0 | 0.00 | 0.00 | 0.00 | 69 | 1018.1 |
| 20260904174504 | 83 | 146 | 1.0 | 4.0 | 0.00 | 0.00 | 0.00 | 69 | 1017.9 |
| 20260904174004 | 83 | 145 | 1.0 | 4.0 | 0.00 | 0.00 | 0.00 | 69 | 1017.9 |
| 20260904173503 | 84 | 140 | 1.0 | 3.0 | 0.00 | 0.00 | 0.00 | 69 | 1018.1 |
| 20260904173216 | 84 | 142 | 1.0 | 4.0 | 0.00 | 0.00 | 0.00 | 69 | 1017.9 |
| 20260904172503 | 84 | 175 | 1.0 | 4.0 | 0.00 | 0.00 | 0.00 | 69 | 1017.9 |
| 20260904172004 | 84 | 160 | 2.0 | 7.0 | 0.00 | 0.00 | 0.00 | 69 | 1018.0 |
| 20260904171715 | 84 | 146 | 2.0 | 7.0 | 0.00 | 0.00 | 0.00 | 69 | 1017.9 |
| 20260904171004 | 85 | 122 | 2.0 | 6.0 | 0.00 | 0.00 | 0.00 | 71 | 1017.7 |
| 20260904170503 | 85 | 119 | 1.0 | 4.0 | 0.00 | 0.00 | 0.00 | 70 | 1017.7 |
| 20260904170004 | 85 | 106 | 1.0 | 6.0 | 0.00 | 0.00 | 0.00 | 69 | 1017.3 |
| 20260904165504 | 85 | 116 | 2.0 | 6.0 | 0.00 | 0.00 | 0.00 | 68 | 1017.4 |
| 20260904165003 | 85 | 110 | 2.0 | 7.0 | 0.00 | 0.00 | 0.00 | 68 | 1017.6 |
| 20260904164504 | 85 | 100 | 2.0 | 7.0 | 0.00 | 0.00 | 0.00 | 68 | 1017.6 |
| 20260904164216 | 85 | 119 | 2.0 | 9.0 | 0.00 | 0.00 | 0.00 | 68 | 1017.6 |
| 20260904163504 | 85 | 124 | 2.0 | 9.0 | 0.00 | 0.00 | 0.00 | 67 | 1017.5 |
| 20260904163004 | 86 | 64 | 1.0 | 4.0 | 0.00 | 0.00 | 0.00 | 66 | 1017.5 |
| 20260904162504 | 86 | 63 | 2.0 | 4.0 | 0.00 | 0.00 | 0.00 | 64 | 1017.3 |
| 20260904162004 | 86 | 94 | 2.0 | 8.0 | 0.00 | 0.00 | 0.00 | 64 | 1017.2 |
| 20260904161503 | 86 | 126 | 2.0 | 8.0 | 0.00 | 0.00 | 0.00 | 63 | 1017.5 |
| 20260904161004 | 87 | 98 | 1.0 | 4.0 | 0.00 | 0.00 | 0.00 | 63 | 1017.3 |
| 20260904160503 | 87 | 88 | 2.0 | 10.0 | 0.00 | 0.00 | 0.00 | 63 | 1017.3 |
| 20260904160215 | 87 | 95 | 2.0 | 10.0 | 0.00 | 0.00 | 0.00 | 63 | 1017.3 |
| 20260904155504 | 87 | 107 | 2.0 | 9.0 | 0.00 | 0.00 | 0.00 | 62 | 1017.4 |
| 20260904155004 | 87 | 107 | 2.0 | 9.0 | 0.00 | 0.00 | 0.00 | 59 | 1017.2 |
| 20260904154503 | 87 | 107 | 3.0 | 7.0 | 0.00 | 0.00 | 0.00 | 60 | 1017.2 |
| 20260904154003 | 87 | 82 | 3.0 | 10.0 | 0.00 | 0.00 | 0.00 | 58 | 1017.3 |
| 20260904153504 | 87 | 72 | 2.0 | 10.0 | 0.00 | 0.00 | 0.00 | 57 | 1017.1 |
| 20260904153003 | 87 | 86 | 2.0 | 9.0 | 0.00 | 0.00 | 0.00 | 58 | 1017.1 |
| 20260904152503 | 87 | 104 | 2.0 | 9.0 | 0.00 | 0.00 | 0.00 | 57 | 1017.2 |
| 20260904152003 | 88 | 99 | 3.0 | 10.0 | 0.00 | 0.00 | 0.00 | 55 | 1017.0 |
| 20260904151716 | 87 | 91 | 3.0 | 10.0 | 0.00 | 0.00 | 0.00 | 55 | 1017.3 |
| 20260904151003 | 88 | 97 | 3.0 | 9.0 | 0.00 | 0.00 | 0.00 | 53 | 1017.2 |
| 20260904150503 | 89 | 91 | 2.0 | 9.0 | 0.00 | 0.00 | 0.00 | 51 | 1017.1 |
| 20260904150004 | 88 | 88 | 2.0 | 9.0 | 0.00 | 0.00 | 0.00 | 54 | 1016.9 |
| 20260904145503 | 88 | 104 | 3.0 | 9.0 | 0.00 | 0.00 | 0.00 | 53 | 1017.3 |
| 20260904145003 | 89 | 92 | 2.0 | 8.0 | 0.00 | 0.00 | 0.00 | 53 | 1016.9 |
| 20260904144503 | 89 | 106 | 3.0 | 8.0 | 0.00 | 0.00 | 0.00 | 54 | 1017.1 |
| 20260904144003 | 88 | 107 | 4.0 | 10.0 | 0.00 | 0.00 | 0.00 | 54 | 1017.0 |
| 20260904143504 | 87 | 103 | 3.0 | 10.0 | 0.00 | 0.00 | 0.00 | 56 | 1017.0 |
| 20260904143003 | 88 | 115 | 3.0 | 9.0 | 0.00 | 0.00 | 0.00 | 56 | 1016.8 |
| 20260904142503 | 89 | 107 | 3.0 | 7.0 | 0.00 | 0.00 | 0.00 | 53 | 1017.1 |
| 20260904142004 | 88 | 95 | 3.0 | 7.0 | 0.00 | 0.00 | 0.00 | 55 | 1017.1 |
| 20260904141504 | 88 | 96 | 3.0 | 11.0 | 0.00 | 0.00 | 0.00 | 55 | 1017.1 |
| 20260904141003 | 89 | 119 | 3.0 | 11.0 | 0.00 | 0.00 | 0.00 | 53 | 1017.1 |
| 20260904140504 | 89 | 115 | 3.0 | 10.0 | 0.00 | 0.00 | 0.00 | 51 | 1017.0 |
| 20260904140003 | 89 | 99 | 3.0 | 9.0 | 0.00 | 0.00 | 0.00 | 47 | 1017.0 |
| 20260904135714 | 89 | 90 | 3.0 | 8.0 | 0.00 | 0.00 | 0.00 | 50 | 1017.2 |
| 20260904135217 | 89 | 92 | 3.0 | 9.0 | 0.00 | 0.00 | 0.00 | 49 | 1017.3 |
| 20260904134503 | 89 | 75 | 3.0 | 9.0 | 0.00 | 0.00 | 0.00 | 47 | 1017.2 |
| 20260904134003 | 90 | 72 | 2.0 | 5.0 | 0.00 | 0.00 | 0.00 | 46 | 1017.0 |
| 20260904133504 | 89 | 97 | 3.0 | 9.0 | 0.00 | 0.00 | 0.00 | 50 | 1016.8 |
| 20260904133003 | 90 | 106 | 3.0 | 9.0 | 0.00 | 0.00 | 0.00 | 53 | 1017.2 |
| 20260904132503 | 89 | 89 | 2.0 | 7.0 | 0.00 | 0.00 | 0.00 | 52 | 1017.0 |
| 20260904132003 | 89 | 83 | 3.0 | 10.0 | 0.00 | 0.00 | 0.00 | 55 | 1017.1 |
| 20260904131712 | 88 | 83 | 3.0 | 10.0 | 0.00 | 0.00 | 0.00 | 56 | 1017.0 |
| 20260904131003 | 88 | 102 | 3.0 | 9.0 | 0.00 | 0.00 | 0.00 | 59 | 1017.2 |
| 20260904130503 | 87 | 87 | 3.0 | 9.0 | 0.00 | 0.00 | 0.00 | 60 | 1017.0 |
| 20260904130003 | 88 | 118 | 3.0 | 13.0 | 0.00 | 0.00 | 0.00 | 60 | 1017.3 |
| 20260904125504 | 89 | 137 | 3.0 | 13.0 | 0.00 | 0.00 | 0.00 | 56 | 1017.4 |
| 20260904125218 | 89 | 119 | 2.0 | 7.0 | 0.00 | 0.00 | 0.00 | 58 | 1017.2 |
| 20260904124503 | 89 | 81 | 3.0 | 8.0 | 0.00 | 0.00 | 0.00 | 59 | 1017.5 |
| 20260904124003 | 88 | 73 | 3.0 | 11.0 | 0.00 | 0.00 | 0.00 | 54 | 1017.3 |
| 20260904123504 | 88 | 90 | 4.0 | 11.0 | 0.00 | 0.00 | 0.00 | 58 | 1017.5 |
| 20260904123003 | 89 | 107 | 4.0 | 10.0 | 0.00 | 0.00 | 0.00 | 60 | 1017.5 |
| 20260904122503 | 88 | 98 | 3.0 | 8.0 | 0.00 | 0.00 | 0.00 | 60 | 1017.4 |
| 20260904122215 | 89 | 95 | 3.0 | 8.0 | 0.00 | 0.00 | 0.00 | 58 | 1017.5 |
| 20260904121503 | 88 | 102 | 2.0 | 8.0 | 0.00 | 0.00 | 0.00 | 58 | 1017.6 |
| 20260904121004 | 89 | 165 | 3.0 | 6.0 | 0.00 | 0.00 | 0.00 | 57 | 1017.3 |
| 20260904120714 | 89 | 143 | 3.0 | 9.0 | 0.00 | 0.00 | 0.00 | 57 | 1017.5 |
| 20260904120004 | 90 | 91 | 3.0 | 9.0 | 0.00 | 0.00 | 0.00 | 58 | 1017.6 |
| 20260904115504 | 91 | 118 | 3.0 | 8.0 | 0.00 | 0.00 | 0.00 | 55 | 1017.5 |
| 20260904115004 | 90 | 136 | 3.0 | 8.0 | 0.00 | 0.00 | 0.00 | 55 | 1017.9 |
| 20260904114503 | 90 | 116 | 3.0 | 10.0 | 0.00 | 0.00 | 0.00 | 57 | 1017.8 |
| 20260904114003 | 89 | 122 | 3.0 | 10.0 | 0.00 | 0.00 | 0.00 | 55 | 1017.7 |
| 20260904113717 | 89 | 113 | 3.0 | 7.0 | 0.00 | 0.00 | 0.00 | 56 | 1017.6 |
| 20260904113003 | 88 | 99 | 4.0 | 13.0 | 0.00 | 0.00 | 0.00 | 57 | 1017.6 |
| 20260904112503 | 90 | 95 | 3.0 | 13.0 | 0.00 | 0.00 | 0.00 | 54 | 1017.7 |
| 20260904112004 | 90 | 95 | 2.0 | 8.0 | 0.00 | 0.00 | 0.00 | 52 | 1017.4 |
| 20260904111504 | 91 | 144 | 2.0 | 8.0 | 0.00 | 0.00 | 0.00 | 53 | 1017.4 |
| 20260904111004 | 90 | 139 | 3.0 | 9.0 | 0.00 | 0.00 | 0.00 | 52 | 1017.6 |
| 20260904110504 | 90 | 119 | 3.0 | 9.0 | 0.00 | 0.00 | 0.00 | 55 | 1017.6 |
| 20260904110004 | 89 | 128 | 3.0 | 11.0 | 0.00 | 0.00 | 0.00 | 54 | 1017.4 |
| 20260904105716 | 90 | 132 | 3.0 | 11.0 | 0.00 | 0.00 | 0.00 | 53 | 1017.6 |
| 20260904105003 | 89 | 101 | 2.0 | 6.0 | 0.00 | 0.00 | 0.00 | 53 | 1017.4 |
| 20260904104503 | 90 | 103 | 2.0 | 8.0 | 0.00 | 0.00 | 0.00 | 54 | 1017.5 |
| 20260904104003 | 92 | 103 | 2.0 | 8.0 | 0.00 | 0.00 | 0.00 | 51 | 1017.6 |
| 20260904103503 | 90 | 131 | 3.0 | 8.0 | 0.00 | 0.00 | 0.00 | 52 | 1017.6 |
| 20260904103003 | 90 | 126 | 3.0 | 8.0 | 0.00 | 0.00 | 0.00 | 53 | 1017.7 |
| 20260904102504 | 89 | 116 | 3.0 | 7.0 | 0.00 | 0.00 | 0.00 | 54 | 1017.7 |
| 20260904102004 | 90 | 123 | 2.0 | 7.0 | 0.00 | 0.00 | 0.00 | 51 | 1017.6 |
| 20260904101504 | 91 | 101 | 2.0 | 6.0 | 0.00 | 0.00 | 0.00 | 49 | 1017.5 |
| 20260904101218 | 91 | 89 | 2.0 | 6.0 | 0.00 | 0.00 | 0.00 | 49 | 1017.6 |
| 20260904100504 | 89 | 100 | 2.0 | 6.0 | 0.00 | 0.00 | 0.00 | 51 | 1017.4 |
| 20260904100004 | 90 | 92 | 2.0 | 8.0 | 0.00 | 0.00 | 0.00 | 49 | 1017.4 |
| 20260904095503 | 89 | 73 | 2.0 | 8.0 | 0.00 | 0.00 | 0.00 | 52 | 1017.7 |
| 20260904095003 | 90 | 93 | 2.0 | 6.0 | 0.00 | 0.00 | 0.00 | 51 | 1017.7 |
| 20260904094503 | 89 | 109 | 3.0 | 8.0 | 0.00 | 0.00 | 0.00 | 51 | 1017.8 |
| 20260904094003 | 90 | 95 | 2.0 | 8.0 | 0.00 | 0.00 | 0.00 | 50 | 1017.9 |
| 20260904093504 | 89 | 81 | 3.0 | 9.0 | 0.00 | 0.00 | 0.00 | 50 | 1017.6 |
| 20260904093004 | 89 | 94 | 3.0 | 9.0 | 0.00 | 0.00 | 0.00 | 50 | 1017.8 |
| 20260904092503 | 90 | 102 | 2.0 | 8.0 | 0.00 | 0.00 | 0.00 | 50 | 1017.9 |
| 20260904092004 | 90 | 106 | 2.0 | 7.0 | 0.00 | 0.00 | 0.00 | 49 | 1017.8 |
| 20260904091504 | 91 | 89 | 2.0 | 6.0 | 0.00 | 0.00 | 0.00 | 47 | 1017.8 |
| 20260904091003 | 89 | 87 | 2.0 | 7.0 | 0.00 | 0.00 | 0.00 | 49 | 1017.6 |
| 20260904090504 | 90 | 98 | 1.0 | 7.0 | 0.00 | 0.00 | 0.00 | 48 | 1018.0 |
| 20260904090004 | 90 | 154 | 1.0 | 6.0 | 0.00 | 0.00 | 0.00 | 49 | 1017.9 |
| 20260904085504 | 91 | 192 | 2.0 | 6.0 | 0.00 | 0.00 | 0.00 | 46 | 1017.7 |
| 20260904085003 | 91 | 190 | 2.0 | 6.0 | 0.00 | 0.00 | 0.00 | 46 | 1017.9 |
| 20260904084504 | 91 | 168 | 2.0 | 4.0 | 0.00 | 0.00 | 0.00 | 47 | 1017.8 |
| 20260904084003 | 90 | 175 | 2.0 | 6.0 | 0.00 | 0.00 | 0.00 | 48 | 1017.6 |
| 20260904083503 | 90 | 184 | 2.0 | 6.0 | 0.00 | 0.00 | 0.00 | 48 | 1017.7 |
| 20260904083004 | 91 | 183 | 1.0 | 6.0 | 0.00 | 0.00 | 0.00 | 47 | 1017.5 |
| 20260904082715 | 91 | 182 | 1.0 | 3.0 | 0.00 | 0.00 | 0.00 | 47 | 1017.7 |
| 20260904082004 | 90 | 186 | 2.0 | 4.0 | 0.00 | 0.00 | 0.00 | 48 | 1017.7 |
| 20260904081503 | 89 | 187 | 2.0 | 4.0 | 0.00 | 0.00 | 0.00 | 49 | 1017.7 |
| 20260904081003 | 90 | 182 | 2.0 | 4.0 | 0.00 | 0.00 | 0.00 | 48 | 1017.4 |
| 20260904080504 | 91 | 184 | 1.0 | 4.0 | 0.00 | 0.00 | 0.00 | 48 | 1017.3 |
| 20260904080003 | 90 | 187 | 1.0 | 4.0 | 0.00 | 0.00 | 0.00 | 49 | 1017.4 |
| 20260904075504 | 90 | 194 | 2.0 | 4.0 | 0.00 | 0.00 | 0.00 | 49 | 1017.5 |
| 20260904075004 | 89 | 191 | 2.0 | 4.0 | 0.00 | 0.00 | 0.00 | 51 | 1017.5 |
| 20260904074503 | 89 | 179 | 2.0 | 4.0 | 0.00 | 0.00 | 0.00 | 50 | 1017.6 |
| 20260904074003 | 89 | 181 | 2.0 | 4.0 | 0.00 | 0.00 | 0.00 | 50 | 1017.6 |